Regional Weather Roundup
Issued by NWS Green Bay, WI

Home | Current Version | Previous Version | Text Only | Print | Product List | Glossary On
Versions: 1 2 3 4 5 6 7 8 9 10 11 12 13 14 15 16 17 18 19 20 21 22 23 24 25 26 27 28 29 30 31 32 33 34 35 36 37 38 39 40 41 42 43 44 45 46 47 48 49 50
000
ASUS43 KGRB 280800
RWRGRB

NORTH-CENTRAL AND NORTHEAST WISCONSIN REGIONAL WEATHER ROUNDUP
NATIONAL WEATHER SERVICE GREEN BAY WI
300 AM CDT FRI AUG 28 2015

WIZ005-009-010>012-018-019-280900-
NORTH CENTRAL WISCONSIN

CITY           SKY/WX    TMP DP  RH WIND       PRES   REMARKS
IRONWOOD       CLOUDY    64  57  77 SW7       29.98S
MANITOWISH WTR NOT AVBL
ARBOR VITAE    NOT AVBL
EAGLE RIVER    NOT AVBL
LAND O LAKES   NOT AVBL
RHINELANDER    CLOUDY    61  57  87 SW10      30.08R
PHILLIPS       CLOUDY    60  58  92 S3        30.04S
ANTIGO         NOT AVBL
TOMAHAWK       NOT AVBL
MERRILL        MOCLDY    55  55 100 CALM      30.07F
$$

WIZ013-073-280900-
NORTHEAST WISCONSIN

CITY           SKY/WX    TMP DP  RH WIND       PRES   REMARKS
IRON MOUNTAIN  MOCLDY    56  55  97 SE3       30.05S
MARINETTE      MOCLDY    59  54  82 SW9       30.07R
$$

WIZ017-030-035>037-045-280900-
CENTRAL WISCONSIN

CITY           SKY/WX    TMP DP  RH WIND       PRES   REMARKS
MEDFORD        NOT AVBL
WAUSAU         PTCLDY    62  58  86 SW3       30.06S
MOSINEE        NOT AVBL
MARSHFIELD     MOCLDY    59  55  87 S5        30.07F
WISC RAPIDS    MOCLDY    61  56  83 S6        30.09S
STEVENS POINT  NOT AVBL
WAUPACA        NOT AVBL
SHAWANO        NOT AVBL
CLINTONVILLE   PTCLDY    59  55  88 CALM      30.09R
WAUTOMA        NOT AVBL
$$

WIZ038-039-048-051-280900-
FOX VALLEY

CITY           SKY/WX    TMP DP  RH WIND       PRES   REMARKS
NWS GREEN BAY  MOCLDY    58  55  90 S6        30.09S
APPLETON       NOT AVBL
OSHKOSH        MOCLDY    59  54  83 S8        30.09S
FOND DU LAC    MOCLDY    56  53  90 S5        30.10S
$$

WIZ022-050-052-280900-
EAST CENTRAL WISCONSIN

CITY           SKY/WX    TMP DP  RH WIND       PRES   REMARKS
EPHRAIM        FAIR      58  54  85 S3        30.07F
STURGEON BAY   PTCLDY    57  52  82 S9        30.11R
MANITOWOC      NOT AVBL
SHEBOYGAN      CLOUDY    56  53  90 S3        30.11S
$$

LMZ563-521-522-541>543-280900-
LAKESHORE

STATION/POSITION TIME  TEMP    WIND        PRES    VSBY  WAVE
                       AIR SEA DIR/SP/G                  HT/PER
                 (UTC) (F)     (DEG/KT/KT) (MB)    (MI)  (FT/S)
SHEBOYGAN LKSHOR 0700   59     200/  8/  9 1019.8F
KEWAUNEE LKSHORE 0700   61     210/  8/ 11 1018.3S
ALGOMA MARINA    0714          220/  3/  6   N/A
NORTHPORT PIER   0700   62     170/  4/ 10 1018.3S
N MID LAKE BUOY  0650   63 64  210/ 16/ 17 1018.2F         3/ 4
S GREEN BAY BUOY 0730   63     190/ 14/ 16 1019.6F
SISTER BAY LKSHO 0719   61     180/ 12/ 15   N/A
CHAMBERS ISLAND  0700   61     170/  4/  9 1018.3S
MENOMINEE LKSHOR 0700   62     190/  9/ 11 1017.2S
$$



USA.gov is the U.S. government's official web portal to all federal, state and local government web resources and services.